Location: Oshawa
(43.9000°N, 78.8670°W)
Time: 07:49:19
(UTC-04:00)

Cosmos 1821 Rocket - Pass Details

Date: 27 April 2018
Orbit: 944 x 1006 km, 82.9° (Epoch: 19 May)

Event Time Altitude Azimuth Distance (km) Brightness Sun altitude
Exits shadow 23:39:06 - 232° (SW) 3,462 6.8 -28.1°
Reaches altitude 10° 23:41:34 10° 245° (WSW) 2,752 6.3 -28.3°
Maximum altitude 23:46:11 21° 293° (WNW) 2,059 6.1 -28.7°
Drops below altitude 10° 23:50:47 10° 340° (NNW) 2,734 7.3 -29.0°
Sets 23:54:00 0° 357° (N) 3,674 8.1 -29.2°
